Location: Chervonnoye
(48.6000°N, 34.4000°E)
Time: 05:58:47
(UTC+00:00)

Cosmos 2341 Rocket - Pass Details

Date: 23 November 2020
Orbit: 969 x 1003 km, 82.9° (Epoch: 18 January)

Event Time Altitude Azimuth Distance (km) Brightness Sun altitude
Rises 15:11:12 0° 353° (N) 3,688 6.9 -12.4°
Reaches altitude 10° 15:13:47 10° 357° (N) 2,740 6.2 -12.8°
Maximum altitude 15:19:58 57° 76° (ENE) 1,148 4.0 -13.8°
Drops below altitude 10° 15:26:09 10° 155° (SSE) 2,745 6.2 -14.8°
Sets 15:28:43 0° 159° (SSE) 3,695 7.0 -15.2°
